Time,TemperatureF,DewpointF,PressureIn,WindDirection,WindDirectionDegrees,WindSpeedMPH,WindSpeedGustMPH,Humidity,HourlyPrecipIn,Conditions,Clouds,dailyrainin,SoftwareType,DateUTC
2013-09-01 00:01:00,71.0,68.6,29.87,WSW,257,0.0,1.0,92,0.00,,,0.00,LWC V2.10 B1702,2013-09-01 04:01:00,
2013-09-01 00:02:00,71.0,68.6,29.87,WNW,300,4.0,5.0,92,0.00,,,0.00,LWC V2.10 B1702,2013-09-01 04:02:00,
2013-09-01 00:07:00,71.0,68.6,29.87,NNE,30,3.0,3.0,92,0.00,,,0.00,LWC V2.10 B1702,2013-09-01 04:07:00,
2013-09-01 00:12:00,71.0,68.6,29.87,WNW,297,0.0,2.0,92,0.00,,,0.00,LWC V2.10 B1702,2013-09-01 04:12:00,
2013-09-01 00:17:00,70.9,68.5,29.87,West,271,0.0,3.0,92,0.00,,,0.00,LWC V2.10 B1702,2013-09-01 04:17:00,
2013-09-01 00:22:00,71.0,68.6,29.87,WNW,302,0.0,2.0,92,0.00,,,0.00,LWC V2.10 B1702,2013-09-01 04:22:00,
2013-09-01 00:27:00,70.9,68.5,29.87,SSW,192,0.0,4.0,92,0.00,,,0.00,LWC V2.10 B1702,2013-09-01 04:27:00,
2013-09-01 00:32:00,70.9,68.5,29.87,ENE,68,0.0,1.0,92,0.00,,,0.00,LWC V2.10 B1702,2013-09-01 04:32:00,
2013-09-01 00:37:00,70.9,68.5,29.87,WNW,297,0.0,3.0,92,0.00,,,0.00,LWC V2.10 B1702,2013-09-01 04:37:00,
2013-09-01 00:42:00,70.9,68.5,29.87,West,263,0.0,7.0,92,0.00,,,0.00,LWC V2.10 B1702,2013-09-01 04:42:00,
2013-09-01 00:47:00,70.9,68.5,29.86,WSW,251,2.0,2.0,92,0.00,,,0.00,LWC V2.10 B1702,2013-09-01 04:47:00,
2013-09-01 00:52:00,70.9,68.5,29.86,SW,235,1.0,1.0,92,0.00,,,0.00,LWC V2.10 B1702,2013-09-01 04:52:00,
2013-09-01 00:57:00,70.9,68.5,29.86,SW,223,0.0,3.0,92,0.00,,,0.00,LWC V2.10 B1702,2013-09-01 04:57:00,
2013-09-01 01:02:00,70.9,68.5,29.86,WNW,292,3.0,4.0,92,0.00,,,0.00,LWC V2.10 B1702,2013-09-01 05:02:00,
2013-09-01 01:07:00,71.0,68.6,29.86,West,275,1.0,3.0,92,0.00,,,0.00,LWC V2.10 B1702,2013-09-01 05:07:00,
2013-09-01 01:12:00,71.0,68.6,29.86,WSW,241,1.0,5.0,92,0.00,,,0.00,LWC V2.10 B1702,2013-09-01 05:12:00,
2013-09-01 01:17:00,71.0,68.6,29.85,WSW,245,1.0,3.0,92,0.00,,,0.00,LWC V2.10 B1702,2013-09-01 05:17:00,
2013-09-01 01:22:00,71.0,68.6,29.85,WNW,303,1.0,4.0,92,0.00,,,0.00,LWC V2.10 B1702,2013-09-01 05:22:00,
2013-09-01 01:27:00,71.0,68.6,29.85,NNW,343,0.0,2.0,92,0.00,,,0.00,LWC V2.10 B1702,2013-09-01 05:27:00,
2013-09-01 01:32:00,71.0,68.6,29.85,West,277,0.0,3.0,92,0.00,,,0.00,LWC V2.10 B1702,2013-09-01 05:32:00,
2013-09-01 01:37:00,71.0,68.6,29.85,NNW,333,0.0,1.0,92,0.00,,,0.00,LWC V2.10 B1702,2013-09-01 05:37:00,
2013-09-01 01:42:00,71.1,68.7,29.85,NW,318,0.0,0.0,92,0.00,,,0.00,LWC V2.10 B1702,2013-09-01 05:42:00,
2013-09-01 01:47:00,71.1,68.7,29.84,NNE,29,0.0,1.0,92,0.00,,,0.00,LWC V2.10 B1702,2013-09-01 05:47:00,
2013-09-01 01:52:00,71.1,68.7,29.84,WNW,294,0.0,3.0,92,0.00,,,0.00,LWC V2.10 B1702,2013-09-01 05:52:00,
2013-09-01 01:57:00,71.1,68.7,29.85,West,274,0.0,1.0,92,0.00,,,0.00,LWC V2.10 B1702,2013-09-01 05:57:00,
2013-09-01 02:02:00,71.1,68.7,29.84,SSW,193,0.0,2.0,92,0.00,,,0.00,LWC V2.10 B1702,2013-09-01 06:02:00,
2013-09-01 02:07:00,71.1,68.7,29.84,West,260,4.0,4.0,92,0.55,,,0.02,LWC V2.10 B1702,2013-09-01 06:07:00,
2013-09-01 02:12:00,71.1,68.7,29.84,SSW,194,0.0,3.0,92,0.11,,,0.02,LWC V2.10 B1702,2013-09-01 06:12:00,
2013-09-01 02:17:00,71.1,68.7,29.84,WNW,290,1.0,3.0,92,0.06,,,0.02,LWC V2.10 B1702,2013-09-01 06:17:00,
2013-09-01 02:22:00,71.0,68.6,29.84,West,279,3.0,6.0,92,0.04,,,0.02,LWC V2.10 B1702,2013-09-01 06:22:00,
2013-09-01 02:27:00,71.1,69.0,29.84,WNW,282,1.0,5.0,93,0.00,,,0.02,LWC V2.10 B1702,2013-09-01 06:27:00,
2013-09-01 02:32:00,71.1,69.0,29.84,SSE,160,2.0,5.0,93,0.00,,,0.02,LWC V2.10 B1702,2013-09-01 06:32:00,
2013-09-01 02:37:00,71.2,69.1,29.84,WNW,286,0.0,1.0,93,0.00,,,0.02,LWC V2.10 B1702,2013-09-01 06:37:00,
2013-09-01 02:42:00,71.1,69.0,29.84,WNW,299,1.0,3.0,93,0.00,,,0.02,LWC V2.10 B1702,2013-09-01 06:42:00,
2013-09-01 02:47:00,71.1,69.0,29.84,WSW,245,0.0,2.0,93,0.00,,,0.02,LWC V2.10 B1702,2013-09-01 06:47:00,
2013-09-01 02:52:00,71.0,68.9,29.84,WSW,248,0.0,3.0,93,0.00,,,0.02,LWC V2.10 B1702,2013-09-01 06:52:00,
2013-09-01 02:57:00,70.9,68.8,29.84,West,279,0.0,4.0,93,0.00,,,0.02,LWC V2.10 B1702,2013-09-01 06:57:00,
2013-09-01 03:02:00,70.8,68.7,29.84,NW,325,0.0,3.0,93,0.00,,,0.02,LWC V2.10 B1702,2013-09-01 07:02:00,
2013-09-01 03:07:00,70.7,68.6,29.84,WSW,258,0.0,1.0,93,0.00,,,0.02,LWC V2.10 B1702,2013-09-01 07:07:00,
2013-09-01 03:12:00,70.6,68.5,29.84,North,5,0.0,1.0,93,0.00,,,0.02,LWC V2.10 B1702,2013-09-01 07:12:00,
2013-09-01 03:17:00,70.6,68.5,29.84,WNW,294,0.0,3.0,93,0.00,,,0.02,LWC V2.10 B1702,2013-09-01 07:17:00,
2013-09-01 03:22:00,70.5,68.4,29.84,WNW,289,0.0,2.0,93,0.00,,,0.02,LWC V2.10 B1702,2013-09-01 07:22:00,
2013-09-01 03:27:00,70.5,68.4,29.84,WNW,298,0.0,1.0,93,0.00,,,0.02,LWC V2.10 B1702,2013-09-01 07:27:00,
2013-09-01 03:32:00,70.4,68.3,29.85,WNW,295,0.0,1.0,93,0.00,,,0.02,LWC V2.10 B1702,2013-09-01 07:32:00,
2013-09-01 03:37:00,70.4,68.3,29.84,West,273,0.0,0.0,93,0.00,,,0.02,LWC V2.10 B1702,2013-09-01 07:37:00,
2013-09-01 03:42:00,70.3,68.2,29.84,WNW,294,0.0,1.0,93,0.00,,,0.02,LWC V2.10 B1702,2013-09-01 07:42:00,
2013-09-01 03:47:00,70.3,68.2,29.85,WNW,284,0.0,1.0,93,0.00,,,0.02,LWC V2.10 B1702,2013-09-01 07:47:00,
2013-09-01 03:52:00,70.3,68.2,29.85,West,280,1.0,2.0,93,0.00,,,0.02,LWC V2.10 B1702,2013-09-01 07:52:00,
2013-09-01 03:57:00,70.3,68.2,29.85,NW,317,0.0,2.0,93,0.00,,,0.02,LWC V2.10 B1702,2013-09-01 07:57:00,
2013-09-01 04:02:00,70.3,68.2,29.85,SW,233,0.0,2.0,93,0.00,,,0.02,LWC V2.10 B1702,2013-09-01 08:02:00,
2013-09-01 04:07:00,70.3,68.2,29.85,WNW,290,0.0,2.0,93,0.00,,,0.02,LWC V2.10 B1702,2013-09-01 08:07:00,
2013-09-01 04:12:00,70.3,68.2,29.85,WSW,256,2.0,2.0,93,0.00,,,0.02,LWC V2.10 B1702,2013-09-01 08:12:00,
2013-09-01 04:17:00,70.3,68.2,29.85,West,281,1.0,4.0,93,0.00,,,0.02,LWC V2.10 B1702,2013-09-01 08:17:00,
2013-09-01 04:22:00,70.2,68.1,29.85,SW,233,0.0,3.0,93,0.00,,,0.02,LWC V2.10 B1702,2013-09-01 08:22:00,
2013-09-01 04:27:00,70.2,68.4,29.85,NW,312,3.0,4.0,94,0.00,,,0.02,LWC V2.10 B1702,2013-09-01 08:27:00,
2013-09-01 04:32:00,70.2,68.4,29.85,West,277,0.0,2.0,94,0.00,,,0.02,LWC V2.10 B1702,2013-09-01 08:32:00,
2013-09-01 04:37:00,70.2,68.4,29.84,WNW,286,0.0,3.0,94,0.00,,,0.02,LWC V2.10 B1702,2013-09-01 08:37:00,
2013-09-01 04:42:00,70.2,68.4,29.84,NNE,18,0.0,1.0,94,0.00,,,0.02,LWC V2.10 B1702,2013-09-01 08:42:00,
2013-09-01 04:47:00,70.2,68.4,29.84,WNW,284,0.0,2.0,94,0.00,,,0.02,LWC V2.10 B1702,2013-09-01 08:47:00,
2013-09-01 04:52:00,70.2,68.4,29.85,West,273,0.0,0.0,94,0.00,,,0.02,LWC V2.10 B1702,2013-09-01 08:52:00,
2013-09-01 04:57:00,70.2,68.4,29.85,West,262,0.0,1.0,94,0.00,,,0.02,LWC V2.10 B1702,2013-09-01 08:57:00,
2013-09-01 05:02:00,70.2,68.4,29.85,SSW,201,3.0,3.0,94,0.00,,,0.02,LWC V2.10 B1702,2013-09-01 09:02:00,
2013-09-01 05:07:00,70.2,68.4,29.85,West,267,0.0,1.0,94,0.00,,,0.02,LWC V2.10 B1702,2013-09-01 09:07:00,
2013-09-01 05:12:00,70.2,68.4,29.86,NW,325,1.0,3.0,94,0.00,,,0.02,LWC V2.10 B1702,2013-09-01 09:12:00,
2013-09-01 05:17:00,70.2,68.4,29.86,West,265,0.0,1.0,94,0.00,,,0.02,LWC V2.10 B1702,2013-09-01 09:17:00,
2013-09-01 05:22:00,70.2,68.4,29.86,West,265,0.0,1.0,94,0.00,,,0.02,LWC V2.10 B1702,2013-09-01 09:22:00,
2013-09-01 05:27:00,70.2,68.4,29.87,SW,221,1.0,1.0,94,0.00,,,0.02,LWC V2.10 B1702,2013-09-01 09:27:00,
2013-09-01 05:32:00,70.2,68.4,29.87,NNW,332,0.0,1.0,94,0.00,,,0.02,LWC V2.10 B1702,2013-09-01 09:32:00,
2013-09-01 05:37:00,70.2,68.4,29.88,WSW,245,0.0,1.0,94,0.00,,,0.02,LWC V2.10 B1702,2013-09-01 09:37:00,
2013-09-01 05:42:00,70.2,68.4,29.88,WSW,249,0.0,2.0,94,0.00,,,0.02,LWC V2.10 B1702,2013-09-01 09:42:00,
2013-09-01 05:47:00,70.2,68.4,29.88,WNW,285,0.0,0.0,94,0.12,,,0.04,LWC V2.10 B1702,2013-09-01 09:47:00,
2013-09-01 05:52:00,70.2,68.4,29.88,West,274,0.0,0.0,94,0.11,,,0.04,LWC V2.10 B1702,2013-09-01 09:52:00,
2013-09-01 05:57:00,70.2,68.4,29.88,West,278,0.0,0.0,94,0.06,,,0.04,LWC V2.10 B1702,2013-09-01 09:57:00,
2013-09-01 06:02:00,70.2,68.4,29.87,West,278,0.0,0.0,94,0.04,,,0.04,LWC V2.10 B1702,2013-09-01 10:02:00,
2013-09-01 06:07:00,70.2,68.4,29.86,West,278,0.0,0.0,94,0.00,,,0.04,LWC V2.10 B1702,2013-09-01 10:07:00,
2013-09-01 06:12:00,70.1,68.3,29.87,West,278,0.0,0.0,94,0.00,,,0.05,LWC V2.10 B1702,2013-09-01 10:12:00,
2013-09-01 06:17:00,70.1,68.3,29.87,West,278,0.0,0.0,94,0.14,,,0.06,LWC V2.10 B1702,2013-09-01 10:17:00,
2013-09-01 06:22:00,70.1,68.3,29.87,West,278,0.0,0.0,94,0.06,,,0.06,LWC V2.10 B1702,2013-09-01 10:22:00,
2013-09-01 06:27:00,70.0,68.2,29.87,West,278,0.0,0.0,94,0.04,,,0.06,LWC V2.10 B1702,2013-09-01 10:27:00,
2013-09-01 06:32:00,70.0,68.2,29.87,West,278,0.0,0.0,94,0.00,,,0.06,LWC V2.10 B1702,2013-09-01 10:32:00,
2013-09-01 06:37:00,70.0,68.2,29.87,East,83,0.0,0.0,94,0.00,,,0.07,LWC V2.10 B1702,2013-09-01 10:37:00,
2013-09-01 06:42:00,70.1,68.3,29.87,SE,138,0.0,0.0,94,0.00,,,0.07,LWC V2.10 B1702,2013-09-01 10:42:00,
2013-09-01 06:47:00,70.1,68.3,29.87,SE,137,0.0,0.0,94,0.00,,,0.07,LWC V2.10 B1702,2013-09-01 10:47:00,
2013-09-01 06:52:00,70.1,68.3,29.87,SE,143,0.0,1.0,94,0.04,,,0.08,LWC V2.10 B1702,2013-09-01 10:52:00,
2013-09-01 06:57:00,70.1,68.3,29.87,SE,146,0.0,0.0,94,0.04,,,0.08,LWC V2.10 B1702,2013-09-01 10:57:00,
2013-09-01 07:02:00,70.1,68.3,29.87,NNE,29,0.0,0.0,94,0.04,,,0.08,LWC V2.10 B1702,2013-09-01 11:02:00,
2013-09-01 07:07:00,70.2,68.4,29.88,West,261,0.0,1.0,94,0.04,,,0.08,LWC V2.10 B1702,2013-09-01 11:07:00,
2013-09-01 07:12:00,70.3,68.5,29.88,West,271,0.0,0.0,94,0.00,,,0.08,LWC V2.10 B1702,2013-09-01 11:12:00,
2013-09-01 07:17:00,70.3,68.5,29.88,WNW,300,0.0,1.0,94,0.00,,,0.08,LWC V2.10 B1702,2013-09-01 11:17:00,
2013-09-01 07:22:00,70.4,68.6,29.88,WSW,253,0.0,1.0,94,0.00,,,0.08,LWC V2.10 B1702,2013-09-01 11:22:00,
2013-09-01 07:27:00,70.5,68.7,29.88,WSW,253,0.0,1.0,94,0.00,,,0.08,LWC V2.10 B1702,2013-09-01 11:27:00,
2013-09-01 07:32:00,70.6,68.8,29.88,NW,319,0.0,0.0,94,0.00,,,0.08,LWC V2.10 B1702,2013-09-01 11:32:00,
2013-09-01 07:37:00,70.6,68.8,29.88,NNW,340,0.0,0.0,94,0.00,,,0.08,LWC V2.10 B1702,2013-09-01 11:37:00,
2013-09-01 07:42:00,70.7,68.9,29.88,SSW,198,0.0,0.0,94,0.00,,,0.08,LWC V2.10 B1702,2013-09-01 11:42:00,
2013-09-01 07:47:00,70.7,68.9,29.88,NW,321,0.0,1.0,94,0.00,,,0.08,LWC V2.10 B1702,2013-09-01 11:47:00,
2013-09-01 07:52:00,70.8,69.0,29.88,West,262,0.0,1.0,94,0.00,,,0.08,LWC V2.10 B1702,2013-09-01 11:52:00,
2013-09-01 07:57:00,70.8,69.0,29.88,NNW,331,0.0,0.0,94,0.00,,,0.08,LWC V2.10 B1702,2013-09-01 11:57:00,
2013-09-01 08:02:00,70.8,69.0,29.89,WNW,288,0.0,0.0,94,0.00,,,0.08,LWC V2.10 B1702,2013-09-01 12:02:00,
2013-09-01 08:07:00,70.9,69.1,29.89,WNW,286,0.0,1.0,94,0.00,,,0.08,LWC V2.10 B1702,2013-09-01 12:07:00,
2013-09-01 08:12:00,70.9,69.1,29.89,NW,304,0.0,0.0,94,0.00,,,0.08,LWC V2.10 B1702,2013-09-01 12:12:00,
2013-09-01 08:17:00,70.9,69.1,29.89,NW,304,0.0,0.0,94,0.00,,,0.08,LWC V2.10 B1702,2013-09-01 12:17:00,
2013-09-01 08:22:00,70.9,69.1,29.89,WNW,302,0.0,0.0,94,0.00,,,0.08,LWC V2.10 B1702,2013-09-01 12:22:00,
2013-09-01 08:27:00,71.0,69.2,29.89,SSW,209,0.0,2.0,94,0.00,,,0.08,LWC V2.10 B1702,2013-09-01 12:27:00,
2013-09-01 08:32:00,71.0,69.2,29.89,North,355,1.0,1.0,94,0.00,,,0.08,LWC V2.10 B1702,2013-09-01 12:32:00,
2013-09-01 08:37:00,71.1,69.3,29.89,SW,227,0.0,3.0,94,0.00,,,0.08,LWC V2.10 B1702,2013-09-01 12:37:00,
2013-09-01 08:42:00,71.3,69.5,29.88,SSE,160,1.0,3.0,94,0.00,,,0.08,LWC V2.10 B1702,2013-09-01 12:42:00,
2013-09-01 08:47:00,71.5,70.0,29.88,West,273,1.0,1.0,95,0.00,,,0.08,LWC V2.10 B1702,2013-09-01 12:47:00,
2013-09-01 08:52:00,71.6,70.1,29.88,WNW,291,0.0,1.0,95,0.00,,,0.08,LWC V2.10 B1702,2013-09-01 12:52:00,
2013-09-01 08:57:00,71.8,70.3,29.88,West,265,0.0,2.0,95,0.00,,,0.08,LWC V2.10 B1702,2013-09-01 12:57:00,
2013-09-01 09:02:00,71.9,70.1,29.88,NNW,338,0.0,2.0,94,0.00,,,0.08,LWC V2.10 B1702,2013-09-01 13:02:00,
2013-09-01 09:07:00,71.9,70.1,29.88,SW,215,0.0,2.0,94,0.00,,,0.08,LWC V2.10 B1702,2013-09-01 13:07:00,
2013-09-01 09:12:00,71.9,70.1,29.88,NW,312,2.0,3.0,94,0.00,,,0.08,LWC V2.10 B1702,2013-09-01 13:12:00,
2013-09-01 09:17:00,71.7,69.9,29.88,WSW,246,0.0,2.0,94,0.00,,,0.08,LWC V2.10 B1702,2013-09-01 13:17:00,
2013-09-01 09:22:00,71.7,69.9,29.88,WNW,296,0.0,3.0,94,0.00,,,0.08,LWC V2.10 B1702,2013-09-01 13:22:00,
2013-09-01 09:27:00,71.6,69.8,29.88,WNW,290,0.0,1.0,94,0.00,,,0.08,LWC V2.10 B1702,2013-09-01 13:27:00,
2013-09-01 09:32:00,71.5,69.7,29.88,SW,225,0.0,2.0,94,0.00,,,0.08,LWC V2.10 B1702,2013-09-01 13:32:00,
2013-09-01 09:37:00,71.5,69.7,29.88,West,261,0.0,2.0,94,0.00,,,0.08,LWC V2.10 B1702,2013-09-01 13:37:00,
2013-09-01 09:42:00,71.5,69.7,29.88,WSW,253,2.0,2.0,94,0.00,,,0.08,LWC V2.10 B1702,2013-09-01 13:42:00,
2013-09-01 09:47:00,71.5,69.7,29.88,WNW,298,0.0,1.0,94,0.00,,,0.08,LWC V2.10 B1702,2013-09-01 13:47:00,
2013-09-01 09:52:00,71.6,69.8,29.88,West,270,0.0,1.0,94,0.00,,,0.08,LWC V2.10 B1702,2013-09-01 13:52:00,
2013-09-01 09:57:00,71.7,69.9,29.88,WSW,247,0.0,1.0,94,0.00,,,0.08,LWC V2.10 B1702,2013-09-01 13:57:00,
2013-09-01 10:02:00,71.7,69.9,29.89,West,261,0.0,3.0,94,0.00,,,0.09,LWC V2.10 B1702,2013-09-01 14:02:00,
2013-09-01 10:07:00,71.6,69.8,29.89,WNW,284,0.0,2.0,94,0.00,,,0.09,LWC V2.10 B1702,2013-09-01 14:07:00,
2013-09-01 10:12:00,71.6,69.8,29.89,NW,315,0.0,2.0,94,0.00,,,0.09,LWC V2.10 B1702,2013-09-01 14:12:00,
2013-09-01 10:17:00,71.6,69.8,29.89,WSW,255,2.0,6.0,94,0.04,,,0.10,LWC V2.10 B1702,2013-09-01 14:17:00,
2013-09-01 10:22:00,71.6,69.8,29.89,West,263,0.0,1.0,94,0.04,,,0.10,LWC V2.10 B1702,2013-09-01 14:22:00,
2013-09-01 10:27:00,71.7,69.9,29.90,WNW,299,0.0,2.0,94,0.04,,,0.10,LWC V2.10 B1702,2013-09-01 14:27:00,
2013-09-01 10:32:00,71.7,69.9,29.90,NW,311,0.0,1.0,94,0.00,,,0.10,LWC V2.10 B1702,2013-09-01 14:32:00,
2013-09-01 10:37:00,71.7,69.9,29.90,WSW,251,0.0,0.0,94,0.00,,,0.10,LWC V2.10 B1702,2013-09-01 14:37:00,
2013-09-01 10:42:00,71.7,69.9,29.90,SW,214,0.0,0.0,94,0.00,,,0.10,LWC V2.10 B1702,2013-09-01 14:42:00,
2013-09-01 10:47:00,71.7,69.9,29.89,West,280,1.0,1.0,94,0.00,,,0.10,LWC V2.10 B1702,2013-09-01 14:47:00,
2013-09-01 10:52:00,71.7,69.9,29.90,West,275,0.0,4.0,94,0.00,,,0.10,LWC V2.10 B1702,2013-09-01 14:52:00,
2013-09-01 10:57:00,71.7,69.9,29.90,WNW,301,1.0,4.0,94,0.00,,,0.10,LWC V2.10 B1702,2013-09-01 14:57:00,
2013-09-01 11:02:00,71.7,69.9,29.90,WNW,282,0.0,3.0,94,0.00,,,0.10,LWC V2.10 B1702,2013-09-01 15:02:00,
2013-09-01 11:07:00,71.7,69.9,29.90,NW,325,0.0,0.0,94,0.00,,,0.10,LWC V2.10 B1702,2013-09-01 15:07:00,
2013-09-01 11:12:00,71.8,70.0,29.90,North,355,0.0,0.0,94,0.00,,,0.10,LWC V2.10 B1702,2013-09-01 15:12:00,
2013-09-01 11:17:00,71.7,69.9,29.90,North,355,0.0,0.0,94,0.00,,,0.10,LWC V2.10 B1702,2013-09-01 15:17:00,
2013-09-01 11:22:00,71.7,69.9,29.90,West,272,0.0,0.0,94,0.00,,,0.10,LWC V2.10 B1702,2013-09-01 15:22:00,
2013-09-01 11:27:00,71.8,70.0,29.89,West,272,0.0,0.0,94,0.00,,,0.10,LWC V2.10 B1702,2013-09-01 15:27:00,
2013-09-01 11:32:00,71.9,70.1,29.89,WNW,286,0.0,1.0,94,0.00,,,0.10,LWC V2.10 B1702,2013-09-01 15:32:00,
2013-09-01 11:37:00,72.0,70.2,29.89,WNW,298,0.0,0.0,94,0.00,,,0.10,LWC V2.10 B1702,2013-09-01 15:37:00,
2013-09-01 11:42:00,72.1,70.3,29.90,North,355,0.0,1.0,94,0.00,,,0.10,LWC V2.10 B1702,2013-09-01 15:42:00,
2013-09-01 11:47:00,72.1,70.3,29.90,NE,40,0.0,0.0,94,0.00,,,0.10,LWC V2.10 B1702,2013-09-01 15:47:00,
2013-09-01 11:52:00,72.1,70.3,29.90,WNW,290,0.0,2.0,94,0.00,,,0.10,LWC V2.10 B1702,2013-09-01 15:52:00,
2013-09-01 11:57:00,72.1,70.3,29.90,West,268,2.0,2.0,94,0.00,,,0.10,LWC V2.10 B1702,2013-09-01 15:57:00,
2013-09-01 12:02:00,72.1,70.3,29.90,West,269,2.0,2.0,94,0.00,,,0.10,LWC V2.10 B1702,2013-09-01 16:02:00,
2013-09-01 12:07:00,72.1,70.3,29.89,NW,311,0.0,1.0,94,0.00,,,0.10,LWC V2.10 B1702,2013-09-01 16:07:00,
2013-09-01 12:12:00,72.2,70.4,29.89,West,276,1.0,3.0,94,0.00,,,0.10,LWC V2.10 B1702,2013-09-01 16:12:00,
2013-09-01 12:17:00,72.4,70.6,29.89,North,0,0.0,2.0,94,0.00,,,0.10,LWC V2.10 B1702,2013-09-01 16:17:00,
2013-09-01 12:22:00,72.6,70.8,29.89,South,182,0.0,4.0,94,0.00,,,0.10,LWC V2.10 B1702,2013-09-01 16:22:00,
2013-09-01 12:27:00,72.6,70.8,29.89,West,259,0.0,1.0,94,0.00,,,0.10,LWC V2.10 B1702,2013-09-01 16:27:00,
2013-09-01 12:32:00,72.8,71.0,29.88,West,266,0.0,1.0,94,0.00,,,0.10,LWC V2.10 B1702,2013-09-01 16:32:00,
2013-09-01 12:37:00,72.9,71.1,29.88,West,259,0.0,1.0,94,0.00,,,0.10,LWC V2.10 B1702,2013-09-01 16:37:00,
2013-09-01 12:42:00,73.1,71.3,29.88,NNW,329,0.0,0.0,94,0.00,,,0.10,LWC V2.10 B1702,2013-09-01 16:42:00,
2013-09-01 12:47:00,73.2,71.4,29.88,NW,309,0.0,1.0,94,0.00,,,0.10,LWC V2.10 B1702,2013-09-01 16:47:00,
2013-09-01 12:52:00,73.2,71.4,29.88,West,271,0.0,2.0,94,0.00,,,0.10,LWC V2.10 B1702,2013-09-01 16:52:00,
2013-09-01 12:57:00,73.1,71.3,29.88,SSW,208,0.0,1.0,94,0.00,,,0.10,LWC V2.10 B1702,2013-09-01 16:57:00,
2013-09-01 13:02:00,73.0,71.2,29.88,WSW,238,1.0,5.0,94,0.00,,,0.10,LWC V2.10 B1702,2013-09-01 17:02:00,
2013-09-01 13:07:00,73.0,71.2,29.88,WSW,243,0.0,1.0,94,0.00,,,0.10,LWC V2.10 B1702,2013-09-01 17:07:00,
2013-09-01 13:12:00,73.1,71.3,29.88,WSW,242,0.0,2.0,94,0.00,,,0.10,LWC V2.10 B1702,2013-09-01 17:12:00,
2013-09-01 13:17:00,73.2,71.4,29.88,WSW,254,1.0,1.0,94,0.00,,,0.10,LWC V2.10 B1702,2013-09-01 17:17:00,
2013-09-01 13:22:00,73.3,71.5,29.88,WSW,240,2.0,2.0,94,0.00,,,0.10,LWC V2.10 B1702,2013-09-01 17:22:00,
2013-09-01 13:27:00,73.4,71.2,29.87,WSW,242,1.0,2.0,93,0.00,,,0.10,LWC V2.10 B1702,2013-09-01 17:27:00,
2013-09-01 13:32:00,73.3,71.1,29.87,SW,234,0.0,5.0,93,0.00,,,0.10,LWC V2.10 B1702,2013-09-01 17:32:00,
2013-09-01 13:37:00,73.4,71.2,29.88,WNW,284,1.0,3.0,93,0.00,,,0.10,LWC V2.10 B1702,2013-09-01 17:37:00,
2013-09-01 13:42:00,73.5,71.3,29.88,WSW,245,1.0,3.0,93,0.00,,,0.10,LWC V2.10 B1702,2013-09-01 17:42:00,
2013-09-01 13:47:00,73.5,71.3,29.87,SSW,204,0.0,3.0,93,0.00,,,0.10,LWC V2.10 B1702,2013-09-01 17:47:00,
2013-09-01 13:52:00,73.6,71.4,29.88,SSW,198,1.0,4.0,93,0.00,,,0.10,LWC V2.10 B1702,2013-09-01 17:52:00,
2013-09-01 13:57:00,73.7,71.5,29.88,SW,222,0.0,2.0,93,0.00,,,0.10,LWC V2.10 B1702,2013-09-01 17:57:00,
2013-09-01 14:03:00,73.9,71.7,29.87,WSW,244,0.0,2.0,93,0.00,,,0.10,LWC V2.10 B1702,2013-09-01 18:03:00,
2013-09-01 14:08:00,74.0,71.5,29.88,West,269,2.0,2.0,92,0.00,,,0.10,LWC V2.10 B1702,2013-09-01 18:08:00,
2013-09-01 14:13:00,74.1,71.6,29.88,West,269,0.0,0.0,92,0.00,,,0.10,LWC V2.10 B1702,2013-09-01 18:13:00,
2013-09-01 14:18:00,74.2,71.7,29.87,West,269,0.0,1.0,92,0.00,,,0.10,LWC V2.10 B1702,2013-09-01 18:18:00,
2013-09-01 14:23:00,74.4,71.9,29.88,SW,233,1.0,2.0,92,0.00,,,0.10,LWC V2.10 B1702,2013-09-01 18:23:00,
2013-09-01 14:28:00,74.4,71.9,29.88,WSW,246,1.0,2.0,92,0.00,,,0.10,LWC V2.10 B1702,2013-09-01 18:28:00,
2013-09-01 14:33:00,74.4,71.6,29.88,WSW,242,0.0,1.0,91,0.00,,,0.10,LWC V2.10 B1702,2013-09-01 18:33:00,
2013-09-01 14:38:00,74.4,71.6,29.88,WSW,256,1.0,2.0,91,0.00,,,0.10,LWC V2.10 B1702,2013-09-01 18:38:00,
2013-09-01 14:43:00,74.4,71.6,29.88,WSW,244,2.0,3.0,91,0.00,,,0.10,LWC V2.10 B1702,2013-09-01 18:43:00,
2013-09-01 14:48:00,74.4,71.6,29.88,East,96,1.0,3.0,91,0.00,,,0.10,LWC V2.10 B1702,2013-09-01 18:48:00,
2013-09-01 14:53:00,74.4,71.6,29.88,WSW,244,1.0,3.0,91,0.00,,,0.10,LWC V2.10 B1702,2013-09-01 18:53:00,
2013-09-01 14:58:00,74.5,71.7,29.88,WSW,244,3.0,3.0,91,0.00,,,0.10,LWC V2.10 B1702,2013-09-01 18:58:00,
2013-09-01 15:03:00,74.5,71.7,29.88,NW,321,0.0,2.0,91,0.00,,,0.10,LWC V2.10 B1702,2013-09-01 19:03:00,
2013-09-01 15:08:00,74.5,71.7,29.88,WNW,288,2.0,2.0,91,0.00,,,0.10,LWC V2.10 B1702,2013-09-01 19:08:00,
2013-09-01 15:13:00,74.6,71.8,29.88,SW,236,2.0,4.0,91,0.00,,,0.10,LWC V2.10 B1702,2013-09-01 19:13:00,
2013-09-01 15:18:00,74.6,71.8,29.88,WSW,240,0.0,4.0,91,0.00,,,0.10,LWC V2.10 B1702,2013-09-01 19:18:00,
2013-09-01 15:23:00,74.6,71.8,29.88,West,266,0.0,2.0,91,0.00,,,0.10,LWC V2.10 B1702,2013-09-01 19:23:00,
2013-09-01 15:28:00,74.6,71.8,29.87,WSW,238,1.0,3.0,91,0.00,,,0.10,LWC V2.10 B1702,2013-09-01 19:28:00,
2013-09-01 15:33:00,74.7,71.9,29.87,South,180,1.0,3.0,91,0.00,,,0.10,LWC V2.10 B1702,2013-09-01 19:33:00,
2013-09-01 15:38:00,74.9,72.1,29.87,SW,217,0.0,2.0,91,0.00,,,0.10,LWC V2.10 B1702,2013-09-01 19:38:00,
2013-09-01 15:43:00,75.0,72.2,29.87,West,277,0.0,2.0,91,0.00,,,0.10,LWC V2.10 B1702,2013-09-01 19:43:00,
2013-09-01 15:48:00,75.0,72.2,29.87,SSW,213,0.0,3.0,91,0.00,,,0.10,LWC V2.10 B1702,2013-09-01 19:48:00,
2013-09-01 15:53:00,75.0,71.9,29.87,WNW,289,1.0,1.0,90,0.00,,,0.10,LWC V2.10 B1702,2013-09-01 19:53:00,
2013-09-01 15:58:00,74.9,71.8,29.87,West,261,1.0,1.0,90,0.00,,,0.10,LWC V2.10 B1702,2013-09-01 19:58:00,
2013-09-01 16:03:00,74.8,71.7,29.87,West,278,0.0,4.0,90,0.00,,,0.10,LWC V2.10 B1702,2013-09-01 20:03:00,
2013-09-01 16:08:00,74.7,71.6,29.87,WSW,248,0.0,1.0,90,0.00,,,0.10,LWC V2.10 B1702,2013-09-01 20:08:00,
2013-09-01 16:13:00,74.6,71.5,29.87,WSW,254,0.0,0.0,90,0.00,,,0.10,LWC V2.10 B1702,2013-09-01 20:13:00,
2013-09-01 16:18:00,74.5,71.4,29.87,West,261,0.0,1.0,90,0.00,,,0.10,LWC V2.10 B1702,2013-09-01 20:18:00,
2013-09-01 16:23:00,74.4,71.6,29.87,SW,233,2.0,4.0,91,0.00,,,0.10,LWC V2.10 B1702,2013-09-01 20:23:00,
2013-09-01 16:28:00,74.4,71.6,29.88,SSW,213,1.0,3.0,91,0.00,,,0.10,LWC V2.10 B1702,2013-09-01 20:28:00,
2013-09-01 16:33:00,74.4,71.6,29.88,West,262,1.0,1.0,91,0.00,,,0.10,LWC V2.10 B1702,2013-09-01 20:33:00,
2013-09-01 16:38:00,74.3,71.2,29.88,West,264,0.0,2.0,90,0.00,,,0.10,LWC V2.10 B1702,2013-09-01 20:38:00,
2013-09-01 16:43:00,74.3,71.5,29.88,WSW,252,0.0,1.0,91,0.00,,,0.10,LWC V2.10 B1702,2013-09-01 20:43:00,
2013-09-01 16:48:00,74.2,71.4,29.87,West,263,0.0,0.0,91,0.00,,,0.10,LWC V2.10 B1702,2013-09-01 20:48:00,
2013-09-01 16:53:00,74.2,71.4,29.87,WSW,247,1.0,1.0,91,0.00,,,0.10,LWC V2.10 B1702,2013-09-01 20:53:00,
2013-09-01 16:58:00,74.2,71.4,29.87,NW,309,0.0,0.0,91,0.00,,,0.10,LWC V2.10 B1702,2013-09-01 20:58:00,
2013-09-01 17:03:00,74.2,71.4,29.87,West,271,0.0,2.0,91,0.00,,,0.10,LWC V2.10 B1702,2013-09-01 21:03:00,
2013-09-01 17:08:00,74.2,71.4,29.87,SW,230,0.0,2.0,91,0.00,,,0.10,LWC V2.10 B1702,2013-09-01 21:08:00,
2013-09-01 17:13:00,74.1,71.3,29.87,West,268,0.0,1.0,91,0.00,,,0.10,LWC V2.10 B1702,2013-09-01 21:13:00,
2013-09-01 17:18:00,74.1,71.3,29.87,NNW,333,0.0,0.0,91,0.00,,,0.10,LWC V2.10 B1702,2013-09-01 21:18:00,
2013-09-01 17:23:00,74.0,71.2,29.88,West,281,0.0,1.0,91,0.00,,,0.10,LWC V2.10 B1702,2013-09-01 21:23:00,
2013-09-01 17:28:00,74.0,71.2,29.87,NW,309,0.0,4.0,91,0.00,,,0.10,LWC V2.10 B1702,2013-09-01 21:28:00,
2013-09-01 17:33:00,73.9,71.1,29.88,WSW,257,0.0,2.0,91,0.00,,,0.10,LWC V2.10 B1702,2013-09-01 21:33:00,
2013-09-01 17:38:00,73.9,71.1,29.88,WSW,256,0.0,0.0,91,0.00,,,0.10,LWC V2.10 B1702,2013-09-01 21:38:00,
2013-09-01 17:43:00,73.9,71.1,29.88,NW,306,0.0,1.0,91,0.00,,,0.10,LWC V2.10 B1702,2013-09-01 21:43:00,
2013-09-01 17:48:00,73.8,71.0,29.88,SW,218,0.0,0.0,91,0.00,,,0.10,LWC V2.10 B1702,2013-09-01 21:48:00,
2013-09-01 17:53:00,73.8,71.0,29.88,SW,229,0.0,0.0,91,0.00,,,0.10,LWC V2.10 B1702,2013-09-01 21:53:00,
2013-09-01 17:58:00,73.8,71.0,29.88,WSW,243,0.0,0.0,91,0.00,,,0.10,LWC V2.10 B1702,2013-09-01 21:58:00,
2013-09-01 18:03:00,73.8,71.0,29.88,South,183,1.0,1.0,91,0.00,,,0.10,LWC V2.10 B1702,2013-09-01 22:03:00,
2013-09-01 18:08:00,73.8,71.0,29.88,South,183,0.0,0.0,91,0.00,,,0.10,LWC V2.10 B1702,2013-09-01 22:08:00,
2013-09-01 18:13:00,73.8,71.0,29.88,WSW,257,0.0,1.0,91,0.00,,,0.10,LWC V2.10 B1702,2013-09-01 22:13:00,
2013-09-01 18:18:00,73.8,71.0,29.88,WSW,251,0.0,1.0,91,0.00,,,0.10,LWC V2.10 B1702,2013-09-01 22:18:00,
2013-09-01 18:23:00,73.8,71.0,29.88,SW,214,1.0,2.0,91,0.00,,,0.10,LWC V2.10 B1702,2013-09-01 22:23:00,
2013-09-01 18:28:00,73.8,71.0,29.88,WSW,252,0.0,2.0,91,0.00,,,0.10,LWC V2.10 B1702,2013-09-01 22:28:00,
2013-09-01 18:33:00,73.8,71.0,29.88,WSW,257,0.0,0.0,91,0.00,,,0.10,LWC V2.10 B1702,2013-09-01 22:33:00,
2013-09-01 18:38:00,73.7,70.9,29.88,SW,216,0.0,3.0,91,0.00,,,0.10,LWC V2.10 B1702,2013-09-01 22:38:00,
2013-09-01 18:43:00,73.7,70.9,29.88,SW,216,0.0,0.0,91,0.00,,,0.10,LWC V2.10 B1702,2013-09-01 22:43:00,
2013-09-01 18:48:00,73.7,70.9,29.88,SW,216,0.0,0.0,91,0.00,,,0.10,LWC V2.10 B1702,2013-09-01 22:48:00,
2013-09-01 18:53:00,73.6,70.8,29.88,ESE,116,0.0,2.0,91,0.00,,,0.10,LWC V2.10 B1702,2013-09-01 22:53:00,
2013-09-01 18:58:00,73.5,70.7,29.88,WSW,237,0.0,1.0,91,0.00,,,0.10,LWC V2.10 B1702,2013-09-01 22:58:00,
2013-09-01 19:03:00,73.4,70.6,29.88,SW,218,1.0,2.0,91,0.00,,,0.10,LWC V2.10 B1702,2013-09-01 23:03:00,
2013-09-01 19:08:00,73.3,70.5,29.88,SSE,167,0.0,1.0,91,0.00,,,0.10,LWC V2.10 B1702,2013-09-01 23:08:00,
2013-09-01 19:13:00,73.3,70.5,29.88,WNW,286,1.0,1.0,91,0.00,,,0.10,LWC V2.10 B1702,2013-09-01 23:13:00,
2013-09-01 19:18:00,73.2,70.4,29.88,North,355,0.0,1.0,91,0.00,,,0.10,LWC V2.10 B1702,2013-09-01 23:18:00,
2013-09-01 19:23:00,73.1,70.3,29.88,North,355,0.0,0.0,91,0.00,,,0.10,LWC V2.10 B1702,2013-09-01 23:23:00,
2013-09-01 19:28:00,73.0,70.2,29.88,ENE,61,0.0,0.0,91,0.00,,,0.10,LWC V2.10 B1702,2013-09-01 23:28:00,
2013-09-01 19:33:00,73.0,70.2,29.87,SW,220,0.0,0.0,91,0.00,,,0.10,LWC V2.10 B1702,2013-09-01 23:33:00,
2013-09-01 19:38:00,72.9,70.1,29.88,SW,220,0.0,0.0,91,0.00,,,0.10,LWC V2.10 B1702,2013-09-01 23:38:00,
2013-09-01 19:43:00,72.8,70.0,29.87,SSW,213,0.0,0.0,91,0.00,,,0.10,LWC V2.10 B1702,2013-09-01 23:43:00,
2013-09-01 19:48:00,72.8,70.0,29.87,WNW,288,0.0,1.0,91,0.00,,,0.10,LWC V2.10 B1702,2013-09-01 23:48:00,
2013-09-01 19:53:00,72.7,70.2,29.88,WNW,288,0.0,0.0,92,0.00,,,0.10,LWC V2.10 B1702,2013-09-01 23:53:00,
2013-09-01 19:58:00,72.6,70.1,29.88,SSE,159,0.0,0.0,92,0.00,,,0.10,LWC V2.10 B1702,2013-09-01 23:58:00,
2013-09-01 20:03:00,72.5,70.0,29.88,NE,53,0.0,0.0,92,0.00,,,0.10,LWC V2.10 B1702,2013-09-02 00:03:00,
2013-09-01 20:08:00,72.5,70.0,29.88,ENE,59,0.0,0.0,92,0.00,,,0.10,LWC V2.10 B1702,2013-09-02 00:08:00,
2013-09-01 20:13:00,72.4,69.9,29.88,North,11,0.0,0.0,92,0.00,,,0.10,LWC V2.10 B1702,2013-09-02 00:13:00,
2013-09-01 20:18:00,72.4,69.9,29.88,South,188,0.0,1.0,92,0.00,,,0.10,LWC V2.10 B1702,2013-09-02 00:18:00,
2013-09-01 20:23:00,72.3,69.8,29.88,SW,232,0.0,1.0,92,0.00,,,0.10,LWC V2.10 B1702,2013-09-02 00:23:00,
2013-09-01 20:28:00,72.2,69.7,29.89,SW,220,0.0,0.0,92,0.00,,,0.10,LWC V2.10 B1702,2013-09-02 00:28:00,
2013-09-01 20:33:00,72.1,69.6,29.89,SSW,213,0.0,0.0,92,0.00,,,0.10,LWC V2.10 B1702,2013-09-02 00:33:00,
2013-09-01 20:38:00,72.1,69.6,29.89,SSW,213,0.0,0.0,92,0.00,,,0.10,LWC V2.10 B1702,2013-09-02 00:38:00,
2013-09-01 20:43:00,72.0,69.5,29.89,SSW,213,0.0,0.0,92,0.00,,,0.10,LWC V2.10 B1702,2013-09-02 00:43:00,
2013-09-01 20:48:00,71.9,69.4,29.89,West,273,0.0,1.0,92,0.00,,,0.10,LWC V2.10 B1702,2013-09-02 00:48:00,
2013-09-01 20:53:00,71.8,69.3,29.89,WSW,243,0.0,1.0,92,0.00,,,0.10,LWC V2.10 B1702,2013-09-02 00:53:00,
2013-09-01 20:58:00,71.8,69.3,29.89,WSW,243,0.0,0.0,92,0.00,,,0.10,LWC V2.10 B1702,2013-09-02 00:58:00,
2013-09-01 21:03:00,71.8,69.3,29.89,ESE,106,0.0,0.0,92,0.00,,,0.10,LWC V2.10 B1702,2013-09-02 01:03:00,
2013-09-01 21:08:00,71.8,69.3,29.89,South,190,0.0,1.0,92,0.00,,,0.10,LWC V2.10 B1702,2013-09-02 01:08:00,
2013-09-01 21:13:00,71.7,69.2,29.89,SE,125,0.0,1.0,92,0.00,,,0.10,LWC V2.10 B1702,2013-09-02 01:13:00,
2013-09-01 21:18:00,71.7,69.2,29.89,SE,146,0.0,0.0,92,0.00,,,0.10,LWC V2.10 B1702,2013-09-02 01:18:00,
2013-09-01 21:23:00,71.6,69.1,29.89,WSW,244,0.0,2.0,92,0.00,,,0.10,LWC V2.10 B1702,2013-09-02 01:23:00,
2013-09-01 21:28:00,71.6,69.5,29.89,South,169,0.0,1.0,93,0.00,,,0.10,LWC V2.10 B1702,2013-09-02 01:28:00,
2013-09-01 21:33:00,71.6,69.5,29.89,South,184,0.0,0.0,93,0.00,,,0.10,LWC V2.10 B1702,2013-09-02 01:33:00,
2013-09-01 21:38:00,71.5,69.4,29.90,South,187,0.0,0.0,93,0.00,,,0.10,LWC V2.10 B1702,2013-09-02 01:38:00,
2013-09-01 21:43:00,71.5,69.4,29.89,WSW,237,0.0,1.0,93,0.00,,,0.10,LWC V2.10 B1702,2013-09-02 01:43:00,
2013-09-01 21:48:00,71.5,69.4,29.89,SSW,204,0.0,2.0,93,0.00,,,0.10,LWC V2.10 B1702,2013-09-02 01:48:00,
2013-09-01 21:53:00,71.5,69.4,29.89,SSW,202,0.0,1.0,93,0.00,,,0.10,LWC V2.10 B1702,2013-09-02 01:53:00,
2013-09-01 21:58:00,71.5,69.4,29.89,SSE,152,0.0,0.0,93,0.00,,,0.10,LWC V2.10 B1702,2013-09-02 01:58:00,
2013-09-01 22:03:00,71.5,69.4,29.89,South,184,0.0,0.0,93,0.00,,,0.10,LWC V2.10 B1702,2013-09-02 02:03:00,
2013-09-01 22:08:00,71.5,69.4,29.89,ENE,65,0.0,0.0,93,0.00,,,0.10,LWC V2.10 B1702,2013-09-02 02:08:00,
2013-09-01 22:13:00,71.4,69.3,29.89,ENE,65,0.0,0.0,93,0.00,,,0.10,LWC V2.10 B1702,2013-09-02 02:13:00,
2013-09-01 22:18:00,71.4,69.3,29.89,ENE,69,0.0,0.0,93,0.00,,,0.10,LWC V2.10 B1702,2013-09-02 02:18:00,
2013-09-01 22:23:00,71.4,69.3,29.89,SSE,158,0.0,1.0,93,0.00,,,0.10,LWC V2.10 B1702,2013-09-02 02:23:00,
2013-09-01 22:28:00,71.4,69.3,29.89,SW,231,0.0,1.0,93,0.00,,,0.10,LWC V2.10 B1702,2013-09-02 02:28:00,
2013-09-01 22:33:00,71.5,69.4,29.89,NW,311,0.0,1.0,93,0.00,,,0.10,LWC V2.10 B1702,2013-09-02 02:33:00,
2013-09-01 22:38:00,71.5,69.4,29.89,SE,138,0.0,0.0,93,0.00,,,0.10,LWC V2.10 B1702,2013-09-02 02:38:00,
2013-09-01 22:43:00,71.4,69.3,29.89,SSW,198,0.0,0.0,93,0.00,,,0.10,LWC V2.10 B1702,2013-09-02 02:43:00,
2013-09-01 22:48:00,71.4,69.3,29.89,SW,215,0.0,0.0,93,0.00,,,0.10,LWC V2.10 B1702,2013-09-02 02:48:00,
2013-09-01 22:53:00,71.4,69.3,29.89,SW,230,0.0,1.0,93,0.00,,,0.10,LWC V2.10 B1702,2013-09-02 02:53:00,
2013-09-01 22:58:00,71.3,69.2,29.89,SW,217,0.0,1.0,93,0.00,,,0.10,LWC V2.10 B1702,2013-09-02 02:58:00,
2013-09-01 23:03:00,71.3,69.2,29.89,SW,236,0.0,0.0,93,0.00,,,0.10,LWC V2.10 B1702,2013-09-02 03:03:00,
2013-09-01 23:08:00,71.3,69.2,29.89,NE,46,0.0,0.0,93,0.00,,,0.10,LWC V2.10 B1702,2013-09-02 03:08:00,
2013-09-01 23:13:00,71.3,69.2,29.89,NE,49,0.0,0.0,93,0.00,,,0.10,LWC V2.10 B1702,2013-09-02 03:13:00,
2013-09-01 23:18:00,71.4,69.6,29.89,West,262,0.0,0.0,94,0.00,,,0.10,LWC V2.10 B1702,2013-09-02 03:18:00,
2013-09-01 23:23:00,71.5,69.7,29.88,East,101,0.0,0.0,94,0.00,,,0.10,LWC V2.10 B1702,2013-09-02 03:23:00,
2013-09-01 23:28:00,71.5,69.7,29.89,WSW,238,0.0,0.0,94,0.00,,,0.10,LWC V2.10 B1702,2013-09-02 03:28:00,
2013-09-01 23:33:00,71.5,69.7,29.88,South,173,0.0,0.0,94,0.00,,,0.10,LWC V2.10 B1702,2013-09-02 03:33:00,
2013-09-01 23:38:00,71.5,69.7,29.88,West,277,0.0,0.0,94,0.00,,,0.10,LWC V2.10 B1702,2013-09-02 03:38:00,
2013-09-01 23:43:00,71.6,69.8,29.88,SE,130,0.0,0.0,94,0.00,,,0.10,LWC V2.10 B1702,2013-09-02 03:43:00,
2013-09-01 23:48:00,71.7,69.9,29.88,SE,130,0.0,0.0,94,0.00,,,0.10,LWC V2.10 B1702,2013-09-02 03:48:00,
2013-09-01 23:53:00,71.7,69.9,29.88,ESE,123,0.0,0.0,94,0.00,,,0.10,LWC V2.10 B1702,2013-09-02 03:53:00,
2013-09-01 23:58:00,71.9,70.1,29.88,SSE,155,0.0,1.0,94,0.00,,,0.10,LWC V2.10 B1702,2013-09-02 03:58:00,